Location: Pedholt
(56.0260°N, 10.2097°E)
Time: 19:53:33
(UTC+00:00)

Transit 2A Rocket - Pass Details

Date: 01 August 2021
Orbit: 586 x 917 km, 66.7° (Epoch: 27 September)

Event Time Altitude Azimuth Distance (km) Brightness Sun altitude
Rises 17:18:08 0° 286° (WNW) 3,016 9.9 15.7°
Reaches altitude 10° 17:20:44 10° 300° (WNW) 2,157 9.0 15.4°
Maximum altitude 17:24:49 25° 356° (N) 1,451 6.8 14.8°
Drops below altitude 10° 17:29:14 10° 52° (NE) 2,343 7.2 14.2°
Sets 17:32:10 0° 65° (ENE) 3,336 7.8 13.8°
